Weather History for KMRT - December, 2013

Change the Weather History Date:

Saturday, December 7, 2013

  Actual Average (KDLZ) Record (KDLZ)
Temperature  
Mean Temperature 16 °F -  
Max Temperature 25 °F 41 °F 63 °F (1956)
Min Temperature 7 °F 23 °F -2 °F (1977)
Degree Days  
Heating Degree Days 49    
Moisture  
Dew Point 13 °F    
Average Humidity 74    
Maximum Humidity 91    
Minimum Humidity 57    
Precipitation  
Precipitation 0.01 in - - ()
Sea Level Pressure  
Sea Level Pressure 30.50 in    
Wind  
Wind Speed 5 mph (North)    
Max Wind Speed 10 mph    
Max Gust Speed -    
Visibility 10 miles    
Events      
Averages and records for this station are not official NWS values.
T = Trace of Precipitation, MM = Missing Value Source: NWS Daily Summary

Daily Weather History Graph

Daily Weather History Graph

Search for Another Location

Airport or City:

Trip Planner

Search our weather history database for the weather conditions in past years. The results will help you decide how hot, cold, wet, or windy it might be!

Date:

Astronomy

Dec. 07, 2013 Rise Set
Actual Time 7:42 AM EST 5:07 PM EST
Civil Twilight 7:12 AM EST 5:37 PM EST
Nautical Twilight 6:38 AM EST 6:11 PM EST
Astronomical Twilight 6:05 AM EST 6:44 PM EST
Moon 11:26 AM EST (12/7) 10:48 PM EST (12/7)
Length of Visible Light 10h 25m
Length of Day
9h 24m
Waxing Crescent, 29% of the Moon is Illuminated
Dec 7
Waxing Crescent
Dec 9
First Quarter
Dec 17
Full
Dec 25
Last Quarter
Jan 1
New

Hourly Weather History & Observations

Time (EST) Temp. Windchill Dew Point Humidity Pressure Visibility Wind Dir Wind Speed Gust Speed Precip Events Conditions
12:14 AM 25.3 °F 21.1 °F 22.1 °F 87% 30.36 in 7.0 mi North 3.5 mph - N/A   Overcast
12:34 AM 25.5 °F 19.9 °F 22.1 °F 87% 30.36 in 10.0 mi NNW 4.6 mph - N/A   Overcast
12:54 AM 25.3 °F 18.5 °F 21.9 °F 87% 30.36 in 10.0 mi NNW 5.8 mph - N/A   Overcast
1:14 AM 25.3 °F 19.7 °F 21.9 °F 87% 30.35 in 10.0 mi NW 4.6 mph - N/A   Overcast
1:34 AM 25.2 °F 19.5 °F 21.9 °F 87% 30.35 in 7.0 mi NNW 4.6 mph - N/A   Overcast
1:54 AM 25.3 °F 19.7 °F 22.1 °F 87% 30.36 in 10.0 mi NNW 4.6 mph - N/A   Overcast
2:14 AM 25.5 °F 18.7 °F 21.9 °F 86% 30.36 in 10.0 mi NNW 5.8 mph - N/A   Overcast
2:34 AM 25.5 °F 16.9 °F 21.6 °F 85% 30.38 in 10.0 mi NNW 8.1 mph - N/A   Overcast
2:54 AM 25.5 °F 18.7 °F 20.8 °F 82% 30.39 in 10.0 mi North 5.8 mph - N/A   Overcast
3:15 AM 25.3 °F 15.3 °F 19.6 °F 79% 30.40 in 10.0 mi NNW 10.4 mph - N/A   Overcast
3:34 AM 25.2 °F 16.5 °F 19.4 °F 79% 30.40 in 10.0 mi North 8.1 mph - N/A   Overcast
3:54 AM 24.8 °F 16.1 °F 19.2 °F 79% 30.41 in 10.0 mi North 8.1 mph - N/A   Overcast
4:15 AM 24.6 °F 15.8 °F 19.2 °F 80% 30.41 in 10.0 mi North 8.1 mph - N/A   Overcast
4:34 AM 24.4 °F 15.6 °F 18.9 °F 79% 30.42 in 10.0 mi NNW 8.1 mph - N/A   Overcast
4:54 AM 23.9 °F 14.2 °F 18.5 °F 80% 30.43 in 10.0 mi NNW 9.2 mph - N/A   Overcast
5:15 AM 23.4 °F 14.3 °F 18.0 °F 80% 30.44 in 10.0 mi NNW 8.1 mph - N/A   Overcast
5:34 AM 23.2 °F 16.0 °F 17.6 °F 79% 30.45 in 10.0 mi NNW 5.8 mph - N/A   Overcast
5:54 AM 22.8 °F 13.6 °F 16.7 °F 77% 30.45 in 10.0 mi NNW 8.1 mph - N/A   Overcast
6:15 AM 22.6 °F 13.4 °F 16.7 °F 78% 30.46 in 10.0 mi NNW 8.1 mph - N/A   Overcast
6:34 AM 22.5 °F 12.4 °F 16.7 °F 79% 30.48 in 10.0 mi North 9.2 mph - N/A   Overcast
6:54 AM 21.2 °F 13.6 °F 15.6 °F 79% 30.48 in 10.0 mi North 5.8 mph - N/A   Overcast
7:15 AM 21.6 °F 12.1 °F 14.0 °F 73% 30.49 in 10.0 mi North 8.1 mph - N/A   Mostly Cloudy
7:34 AM 20.3 °F 12.5 °F 12.2 °F 71% 30.49 in 10.0 mi North 5.8 mph - N/A   Scattered Clouds
7:54 AM 19.8 °F 13.2 °F 12.0 °F 72% 30.50 in 10.0 mi North 4.6 mph - N/A   Mostly Cloudy
8:14 AM 20.1 °F - 12.6 °F 73% 30.51 in 10.0 mi Calm Calm - N/A   Overcast
8:34 AM 20.5 °F 14.0 °F 12.7 °F 72% 30.52 in 10.0 mi North 4.6 mph - N/A   Mostly Cloudy
8:54 AM 21.0 °F 16.2 °F 13.1 °F 71% 30.53 in 10.0 mi NNE 3.5 mph - N/A   Clear
9:14 AM 21.7 °F 15.5 °F 11.7 °F 65% 30.53 in 10.0 mi NNE 4.6 mph - N/A   Clear
9:34 AM 22.1 °F 13.7 °F 11.5 °F 64% 30.54 in 10.0 mi NNE 6.9 mph - N/A   Clear
9:54 AM 22.1 °F 14.7 °F 11.3 °F 63% 30.55 in 10.0 mi NE 5.8 mph - N/A   Clear
10:14 AM 22.6 °F 15.3 °F 11.5 °F 62% 30.55 in 10.0 mi NE 5.8 mph - N/A   Clear
10:34 AM 23.2 °F 17.2 °F 11.3 °F 60% 30.56 in 10.0 mi ENE 4.6 mph - N/A   Clear
10:54 AM 23.7 °F 19.3 °F 11.8 °F 61% 30.56 in 10.0 mi NE 3.5 mph - N/A   Clear
11:14 AM 24.3 °F 19.9 °F 11.7 °F 59% 30.56 in 10.0 mi North 3.5 mph - N/A   Clear
11:35 AM 24.6 °F 18.8 °F 11.7 °F 58% 30.56 in 10.0 mi NNE 4.6 mph - N/A   Clear
11:54 AM 25.0 °F 18.1 °F 12.0 °F 58% 30.56 in 10.0 mi North 5.8 mph - N/A   Scattered Clouds
12:14 PM 24.6 °F 16.7 °F 11.7 °F 58% 30.55 in 10.0 mi North 6.9 mph - N/A   Mostly Cloudy
12:35 PM 25.2 °F 18.3 °F 11.8 °F 57% 30.54 in 10.0 mi NNE 5.8 mph - N/A   Scattered Clouds
12:54 PM 25.2 °F 17.3 °F 12.2 °F 58% 30.54 in 10.0 mi NNE 6.9 mph - N/A   Clear
1:14 PM 25.2 °F 16.5 °F 11.8 °F 57% 30.53 in 10.0 mi NNE 8.1 mph - N/A   Clear
1:34 PM 25.5 °F 17.8 °F 12.2 °F 57% 30.53 in 10.0 mi NNE 6.9 mph - N/A   Clear
1:54 PM 25.2 °F 19.5 °F 12.0 °F 58% 30.54 in 10.0 mi North 4.6 mph - N/A   Scattered Clouds
2:15 PM 24.6 °F 15.8 °F 12.0 °F 59% 30.53 in 10.0 mi North 8.1 mph - N/A   Scattered Clouds
2:34 PM 24.8 °F 19.1 °F 12.0 °F 58% 30.53 in 10.0 mi North 4.6 mph - N/A   Clear
2:54 PM 24.6 °F 15.8 °F 12.7 °F 61% 30.52 in 10.0 mi North 8.1 mph - N/A   Clear
3:14 PM 23.7 °F 14.7 °F 12.6 °F 62% 30.52 in 10.0 mi North 8.1 mph - N/A   Clear
3:34 PM 23.5 °F 16.4 °F 12.0 °F 61% 30.52 in 10.0 mi North 5.8 mph - N/A   Scattered Clouds
3:55 PM 23.2 °F 16.0 °F 12.0 °F 62% 30.53 in 10.0 mi NNW 5.8 mph - N/A   Clear
4:14 PM 23.0 °F 14.7 °F 12.0 °F 63% 30.54 in 10.0 mi North 6.9 mph - N/A   Clear
4:34 PM 23.0 °F 15.8 °F 12.2 °F 63% 30.54 in 10.0 mi North 5.8 mph - N/A   Mostly Cloudy
4:55 PM 22.8 °F 14.5 °F 12.9 °F 66% 30.55 in 10.0 mi North 6.9 mph - N/A   Overcast
5:14 PM 22.8 °F 18.2 °F 12.7 °F 65% 30.55 in 10.0 mi North 3.5 mph - N/A   Overcast
5:34 PM 21.7 °F 17.0 °F 12.4 °F 67% 30.55 in 10.0 mi North 3.5 mph - N/A   Mostly Cloudy
5:55 PM 21.0 °F - 12.4 °F 69% 30.56 in 10.0 mi Calm Calm - N/A   Scattered Clouds
6:14 PM 20.8 °F - 12.7 °F 71% 30.56 in 10.0 mi Calm Calm - N/A   Clear
6:34 PM 13.6 °F - 6.8 °F 74% 30.56 in 10.0 mi Calm Calm - N/A   Clear
6:55 PM 12.2 °F - 8.4 °F 85% 30.56 in 10.0 mi Calm Calm - N/A   Clear
7:14 PM 9.9 °F - 5.0 °F 81% 30.57 in 10.0 mi Calm Calm - N/A   Clear
7:34 PM 12.6 °F - 9.7 °F 88% 30.57 in 10.0 mi Calm Calm - N/A   Clear
7:55 PM 11.3 °F - 8.2 °F 87% 30.57 in 10.0 mi Calm Calm - N/A   Clear
8:14 PM 9.3 °F - 5.9 °F 86% 30.57 in 10.0 mi Calm Calm - N/A   Clear
8:34 PM 11.3 °F - 8.6 °F 89% 30.57 in 10.0 mi Calm Calm - N/A   Clear
8:55 PM 14.7 °F - 10.8 °F 84% 30.56 in 10.0 mi Calm Calm - N/A   Clear
9:14 PM 13.5 °F 7.5 °F 11.3 °F 91% 30.56 in 10.0 mi North 3.5 mph - N/A   Clear
9:34 PM 10.8 °F - 8.2 °F 90% 30.57 in 7.0 mi Calm Calm - N/A   Clear
9:55 PM 15.3 °F 9.6 °F 12.2 °F 88% 30.57 in 10.0 mi NNW 3.5 mph - N/A   Clear
10:14 PM 12.0 °F - 8.6 °F 86% 30.56 in 7.0 mi Calm Calm - N/A   Clear
10:34 PM 7.5 °F - 4.1 °F 86% 30.57 in 4.0 mi Calm Calm - N/A   Clear
10:55 PM 10.4 °F - 7.9 °F 90% 30.55 in 4.0 mi Calm Calm - N/A   Clear
11:14 PM 12.2 °F - 9.5 °F 89% 30.54 in 5.0 mi Calm Calm - N/A   Clear
11:34 PM 7.5 °F - 4.1 °F 86% 30.54 in 7.0 mi Calm Calm - N/A   Clear
11:55 PM 8.6 °F - 5.5 °F 87% 30.54 in 7.0 mi Calm Calm - N/A   Clear